Lapse_Rate
9.6 9.6 8.9 8.8 8.6 7.0 9.3 9.0 9.1 9.2 9.4 8.6 9.2 9.4 9.5 9.6 9.6 9.2 9.0 9.2 8.7 9.2 9.0 9.3 9.1 8.9 9.5 9.6 9.6 9.5 9.3 9.2 8.6 9.0 9.4 9.4 8.7 7.6 7.9 7.4 7.4 8.3 9.5
9.6 9.6 9.1 9.1 8.9 9.0 7.6 9.2 9.0 8.7 9.0 9.3 8.2 9.1 9.1 9.4 9.5 9.3 9.2 9.4 9.3 9.1 9.2 9.2 9.2 9.6 8.7 7.9 8.8 8.6 8.9 8.8 8.9 7.6 8.4 9.2 8.4 8.5 8.2 7.7 8.2 9.3 9.4
9.5 9.5 9.9 9.5 9.0 9.1 8.8 8.1 8.6 8.2 7.9 8.4 8.4 8.1 8.7 9.3 9.3 9.4 9.3 9.3 9.4 9.4 9.4 9.2 9.3 9.3 8.9 9.1 9.1 9.1 9.3 8.8 9.0 8.9 8.8 9.4 9.4 9.5 9.0 8.3 7.6 8.2 8.6
9.4 9.6 9.4 9.7 9.8 9.4 9.3 8.1 8.3 7.7 7.0 7.0 7.4 7.5 7.9 8.9 9.4 9.5 9.5 9.3 9.5 9.5 9.5 9.5 9.4 9.4 9.0 8.8 8.5 8.2 8.4 8.2 8.7 9.0 9.2 9.2 9.3 9.0 9.0 8.9 9.0 9.4 9.3
9.4 9.9 9.5 9.3 9.5 9.4 8.8 8.8 7.9 7.8 6.9 6.6 6.8 7.5 7.9 9.2 9.8 9.2 9.4 9.5 9.3 9.3 9.5 9.5 9.5 8.9 6.5 7.3 9.4 8.5 8.2 8.9 9.1 9.2 9.1 9.1 9.2 9.1 8.3 9.3 9.0 9.5 9.3
8.9 9.3 9.1 8.8 9.0 8.9 8.8 8.4 8.1 7.5 7.0 6.5 6.8 7.0 7.4 9.4 6.1 3.4 7.3 9.4 9.4 9.0 9.1 9.2 9.2 5.7 5.8 3.2 2.2 1.9 3.3 6.6 7.3 8.6 9.1 8.9 7.3 8.2 9.5 9.3 9.1 9.2 9.1
8.6 8.8 8.8 8.4 8.5 8.3 8.6 8.5 7.7 6.5 6.5 6.3 6.4 6.9 6.8 6.9 2.5 1.7 2.5 8.9 9.4 9.1 8.7 8.7 9.2 9.8 6.2 8.7 3.1 1.9 1.5 0.5 0.7 4.9 5.5 6.0 6.2 6.3 6.7 6.9 8.0 8.4 8.3
8.4 8.6 8.6 8.5 8.5 8.2 8.3 7.8 6.9 6.4 6.0 6.1 6.1 6.2 6.5 6.9 1.0 -0.9 1.0 7.3 8.3 8.3 9.0 8.5 7.8 7.9 8.2 8.4 9.1 9.1 8.0 6.6 4.5 4.1 4.6 5.2 5.9 6.3 7.1 8.2 8.0 7.7 8.0
8.8 8.5 8.5 8.9 8.7 8.8 8.0 7.4 7.4 6.6 6.1 6.1 6.0 5.7 5.8 6.0 -0.2 -1.9 -0.2 7.0 8.0 7.1 7.4 7.3 8.2 8.0 4.6 0.4 6.7 6.9 7.2 7.5 8.5 6.8 5.2 5.6 5.1 4.6 3.9 6.4 7.1 8.1 8.6
9.2 8.8 8.8 8.9 8.8 8.7 8.4 8.1 7.1 6.2 5.9 6.8 6.4 6.1 4.9 5.7 -1.1 -2.9 -0.9 7.3 8.5 8.3 7.0 5.9 1.3 3.8 1.1 -1.8 5.2 6.2 6.5 6.5 7.0 7.8 8.3 6.1 2.0 5.3 2.2 3.6 7.4 6.4 6.8
9.5 9.3 9.1 8.9 8.8 8.9 8.8 8.5 8.3 7.0 8.5 6.7 8.2 7.3 6.2 5.7 4.9 -4.1 -4.5 5.4 8.5 9.2 9.4 9.4 9.3 0.0 -1.8 -2.2 -2.5 5.9 6.1 5.8 6.8 8.3 9.1 9.3 8.8 8.7 7.2 5.3 6.7 5.7 5.8
8.6 9.0 8.8 9.0 9.4 9.4 8.6 8.3 8.3 8.4 8.1 8.4 7.8 8.8 9.1 7.3 0.9 -3.7 -5.2 -3.2 2.6 7.3 8.4 9.5 8.9 -0.1 -3.2 -2.8 -1.7 0.8 -1.4 -0.2 7.2 8.3 8.7 8.9 8.9 8.6 9.0 8.0 6.1 6.2 6.7
8.5 8.6 8.8 9.1 9.3 9.0 8.4 8.2 8.6 8.4 8.8 8.6 8.9 8.9 9.1 9.3 9.1 -1.2 -5.1 -5.5 -4.1 2.7 6.8 6.5 -1.6 -2.6 -4.1 -3.6 -4.3 -1.6 -2.3 6.0 6.6 7.9 8.4 8.9 8.2 7.5 4.6 3.8 6.5 7.2 7.1
8.5 8.6 9.0 8.9 8.9 9.1 9.1 9.1 9.1 9.0 9.0 9.0 9.0 8.9 9.1 9.3 9.5 9.4 4.7 -0.6 -4.8 -1.6 0.7 4.1 5.1 1.6 -0.9 2.6 4.9 1.7 5.7 7.1 7.7 7.9 8.3 6.1 4.8 4.6 6.2 8.1 8.7 9.3 9.2
8.9 9.0 9.0 8.9 8.7 8.9 9.0 9.1 9.3 9.1 7.1 9.4 9.0 9.1 9.0 9.1 9.3 7.3 7.0 7.4 5.1 2.3 3.4 4.8 6.1 6.9 8.3 9.0 9.1 8.4 7.3 6.7 7.3 8.2 6.3 4.5 5.5 6.8 8.2 9.3 9.3 9.2 8.9
7.5 8.4 9.0 9.1 9.4 9.4 9.2 6.5 -6.7 -4.1 -5.8 -5.5 -5.9 -0.7 4.7 -4.0 -4.8 -4.3 -5.8 -3.7 -2.1 -2.9 4.8 8.5 8.8 9.0 8.9 9.0 8.9 8.4 7.3 5.7 6.8 4.8 4.4 5.7 7.6 9.0 9.1 9.2 9.1 9.0 8.8
7.3 7.7 9.2 7.7 9.1 9.5 9.4 8.8 8.2 -1.0 -6.0 -6.3 -6.5 -5.3 -4.9 -4.8 -4.4 -4.0 -5.2 -6.8 -6.1 -2.6 8.6 8.9 8.9 8.7 8.7 8.6 6.5 6.3 6.0 5.8 5.2 5.5 7.3 7.4 9.1 9.2 8.3 9.0 9.0 8.9 8.8
6.9 1.8 7.1 7.8 7.7 7.9 7.9 8.2 8.8 8.8 8.7 7.8 -4.7 -3.1 -9.2 -6.7 -4.7 -5.2 -5.0 -2.5 5.4 3.9 9.0 8.9 7.7 8.1 7.5 6.6 6.6 6.9 6.4 5.9 6.8 8.4 8.5 9.3 9.3 9.2 9.0 8.9 9.0 8.9 8.9
4.3 6.2 5.1 6.4 7.5 7.1 6.1 6.0 7.5 6.3 5.8 4.8 1.1 -1.8 -4.5 -8.5 -7.9 -7.3 -6.5 6.7 8.7 8.9 8.4 7.4 6.7 6.4 6.3 5.4 5.3 4.8 6.4 7.3 6.7 8.0 9.3 9.3 9.3 9.2 9.0 9.0 8.9 5.5 6.0
5.6 3.2 6.3 8.4 8.5 7.6 8.3 7.6 8.3 5.9 3.6 -1.1 -0.3 2.4 0.3 0.1 2.3 4.7 4.1 6.8 7.1 5.5 4.3 5.0 6.3 5.8 4.8 5.0 5.7 6.4 7.1 6.6 7.2 8.4 9.1 9.1 8.9 7.8 9.0 9.0 9.0 8.7 8.7
5.4 6.2 6.6 7.8 5.3 7.9 7.8 4.1 5.3 5.0 6.8 5.2 3.3 0.7 -2.9 4.4 5.0 5.1 2.8 2.1 1.1 3.7 5.3 5.4 4.3 4.7 4.1 4.6 4.9 6.2 7.2 8.1 7.9 7.7 6.5 7.6 7.4 7.5 9.0 8.7 9.2 9.2 8.6
7.8 8.1 8.1 7.6 8.4 8.8 7.8 5.7 5.2 6.7 8.8 6.7 4.0 1.7 -2.2 2.8 4.6 2.5 1.6 1.3 1.7 2.8 3.2 4.9 5.6 5.3 5.3 4.1 4.3 6.0 7.7 8.1 8.3 8.7 9.0 9.0 8.8 8.9 7.6 7.4 7.8 9.2 8.7
6.3 8.4 9.1 8.8 7.1 5.7 8.9 8.7 7.7 8.1 8.5 8.4 6.9 5.5 5.0 5.3 7.6 6.3 4.4 4.2 4.0 4.4 4.8 5.8 6.7 6.3 6.4 6.5 6.8 7.6 9.4 9.1 8.3 8.4 8.9 9.4 9.5 9.4 8.1 7.8 9.1 9.2 9.1
6.7 7.4 9.2 8.9 8.6 7.1 5.5 7.8 7.0 3.7 3.8 4.5 5.5 8.6 8.4 8.2 8.8 6.4 4.5 3.8 3.5 4.1 3.7 3.7 4.2 5.2 5.7 7.5 7.3 8.4 2.0 0.6 1.7 5.7 5.9 7.5 9.4 9.2 9.5 9.3 9.3 9.2 9.2
6.9 8.5 6.1 4.5 5.3 7.9 7.8 4.6 4.7 4.7 3.9 3.6 3.8 3.7 4.2 4.6 3.3 5.1 6.1 6.6 5.9 6.2 6.7 7.0 6.9 6.2 5.2 3.6 2.1 1.2 -4.6 -6.7 -2.3 -2.3 4.1 6.3 8.6 9.5 9.5 9.4 9.1 9.0 8.4
1.8 2.1 1.2 -0.1 -1.0 -0.8 -0.3 -0.1 -0.8 -0.7 -0.2 -0.2 1.8 3.7 3.1 3.8 3.5 3.4 4.0 5.1 5.9 5.7 6.2 7.5 8.4 7.9 5.1 2.3 -0.2 -4.3 -5.7 -5.0 -2.1 -4.1 -0.1 7.4 9.5 9.3 8.6 8.6 9.1 9.2 8.8
Wind_Speed
22 21 20 19 19 18 14 14 12 11 9 11 9 10 11 11 10 10 10 7 10 8 8 6 8 7 8 6 6 6 6 6 7 7 7 7 4 6 9 12 16 17 19
22 20 21 19 19 19 18 15 14 13 13 11 12 11 11 12 11 11 13 11 11 11 11 9 9 8 8 8 8 7 7 6 7 8 8 9 9 9 9 10 12 17 17
22 23 21 21 20 20 19 17 16 15 14 16 13 13 12 12 12 12 12 12 11 12 11 10 10 10 9 9 8 9 9 8 9 9 9 8 8 9 9 10 10 12 16
24 24 23 22 22 20 18 18 17 16 16 15 14 14 14 13 13 14 13 13 12 12 11 11 11 11 11 10 10 9 9 9 10 10 10 10 9 8 8 9 9 7 10
22 22 23 22 21 19 20 19 18 17 16 16 15 14 15 14 13 14 13 13 13 13 12 12 13 12 11 11 10 11 10 10 10 10 10 10 9 9 9 10 12 11 9
21 23 20 19 20 20 20 19 18 18 17 16 16 16 15 14 16 16 15 13 13 13 12 12 12 11 14 12 12 12 12 10 10 11 11 12 11 11 10 10 12 13 13
19 19 19 19 20 20 19 19 19 19 17 17 17 16 16 16 12 17 18 14 13 13 13 12 12 13 13 14 16 18 16 16 14 13 14 14 14 13 12 12 12 12 14
20 18 20 19 20 19 19 20 19 17 18 16 16 16 16 15 14 14 16 16 14 14 12 13 13 13 11 9 12 13 14 14 14 12 14 14 13 12 12 12 13 14 12
19 21 21 21 20 20 20 20 18 17 16 16 16 17 17 16 17 16 14 14 15 15 14 15 13 13 14 12 13 14 14 13 17 19 21 23 24 24 20 10 11 11 13
22 23 20 19 19 21 20 19 18 15 17 15 17 16 17 17 14 17 17 13 14 13 14 15 15 17 13 12 13 14 15 14 13 14 12 10 16 15 21 12 11 9 11
19 18 18 19 19 18 16 15 16 16 15 15 16 15 16 17 15 19 20 15 13 13 13 12 13 20 22 20 15 14 15 10 12 11 12 9 9 11 8 6 7 8 9
17 18 18 18 16 16 17 15 16 14 14 13 14 13 14 14 16 15 19 21 16 14 13 12 12 13 19 20 16 15 11 10 12 11 10 10 10 8 8 9 12 12 14
16 17 17 17 16 14 16 15 14 14 14 14 13 13 13 13 13 17 19 21 21 14 13 4 9 6 7 4 9 9 9 8 10 10 10 11 8 7 7 7 11 17 18
14 16 15 16 16 15 15 14 14 14 14 13 14 13 13 12 12 12 13 12 15 13 15 14 12 6 4 6 2 8 8 10 10 9 9 7 6 7 8 8 8 7 8
14 15 15 15 16 15 14 13 14 12 10 14 13 13 12 12 13 14 12 12 12 14 12 12 12 12 12 12 9 8 7 6 7 8 7 6 7 8 8 6 6 7 7
11 12 15 15 15 14 13 8 13 12 9 11 10 5 6 14 13 2 14 15 9 16 12 12 11 12 12 11 10 9 7 7 8 5 6 7 8 7 7 5 5 6 7
8 12 12 14 15 13 13 13 11 1 7 9 11 10 7 5 7 7 5 10 8 15 10 10 11 8 8 8 6 6 6 7 7 7 7 7 8 6 4 6 5 7 8
0 6 4 7 10 8 9 10 9 11 10 6 7 6 10 5 3 5 4 6 3 5 10 10 6 7 7 6 7 7 7 5 6 7 8 7 6 7 6 5 6 8 8
8 7 3 5 4 9 5 7 9 8 9 6 7 6 8 9 4 3 8 7 9 9 10 7 4 6 6 5 5 4 5 6 3 1 6 6 5 5 5 5 6 7 5
9 6 4 6 4 5 7 8 7 9 10 8 6 3 5 4 5 5 3 6 7 3 6 3 4 5 4 4 3 2 4 2 3 5 5 4 3 5 6 6 5 6 7
9 7 7 3 6 5 4 5 1 5 8 4 8 8 13 4 5 4 4 4 4 3 4 4 4 4 4 4 2 3 3 1 3 1 2 3 3 5 7 6 7 5 5
9 7 8 4 3 3 5 3 5 9 8 5 9 7 12 2 5 6 5 5 3 3 3 4 4 4 4 5 3 2 2 3 5 7 7 7 7 4 4 6 7 9 9
8 10 9 4 5 5 3 7 4 4 4 5 6 6 7 3 5 5 5 5 4 4 4 4 4 5 4 4 2 1 2 3 6 6 5 6 7 5 6 6 9 10 9
4 5 8 13 6 8 9 7 6 9 9 7 6 3 6 6 6 7 6 5 5 5 5 4 4 4 5 4 4 8 10 8 6 4 6 6 7 7 8 6 8 12 11
12 8 6 5 10 8 7 10 10 10 9 8 7 7 7 6 5 5 4 5 6 5 6 6 7 10 13 15 13 11 11 10 5 8 6 7 8 9 9 9 10 8 10
10 11 10 9 9 9 9 8 9 8 9 9 7 6 7 7 6 5 5 6 7 7 8 7 11 14 14 14 14 15 16 17 13 14 10 6 5 7 9 10 13 10 10
Wind_Direction
201 199 199 197 199 203 212 202 213 212 211 214 230 208 219 218 214 208 236 233 198 219 256 244 201 253 273 263 230 244 256 253 264 273 292 308 323 237 263 268 277 278 268
202 199 200 196 199 199 206 208 199 210 214 213 214 215 217 218 213 210 214 226 221 208 218 230 233 235 227 261 279 280 275 291 285 286 290 289 276 271 260 252 264 275 284
201 200 199 201 199 201 197 205 203 203 208 215 210 213 209 216 216 212 216 223 230 219 228 230 230 230 239 252 241 256 249 232 241 255 272 277 284 288 277 262 253 255 259
198 206 203 202 202 199 198 199 203 201 202 211 213 208 209 210 215 220 216 221 225 229 227 230 234 233 231 231 243 255 262 272 279 278 275 274 272 277 273 270 273 296 309
199 202 204 202 202 200 201 198 201 202 202 205 211 213 209 212 215 216 220 216 219 232 233 223 231 239 239 233 242 238 246 252 257 264 270 278 286 300 318 317 296 289 305
200 202 202 196 199 203 201 200 199 202 203 203 210 212 213 218 209 201 210 222 220 222 230 232 239 223 229 234 239 257 269 279 279 280 282 284 290 290 292 307 312 304 301
208 199 201 193 198 201 199 198 201 202 201 205 209 212 215 218 207 197 200 220 223 224 229 231 235 238 217 230 223 232 243 247 239 259 266 269 283 287 294 297 292 292 295
203 204 198 196 197 199 198 200 200 201 203 203 209 211 216 218 204 195 198 215 227 238 234 229 233 248 259 254 237 238 230 234 233 236 237 251 259 262 257 270 290 286 283
207 204 199 199 195 198 201 200 199 202 204 205 208 211 213 220 198 194 187 217 227 233 235 241 245 239 232 220 249 260 267 269 272 264 246 248 250 261 265 285 282 285 292
209 203 200 198 198 199 200 200 200 201 206 207 210 210 212 217 195 194 191 220 224 229 229 234 232 241 242 212 230 246 254 258 263 272 278 263 253 258 254 242 259 264 279
201 198 197 199 202 200 199 197 202 205 207 209 212 212 213 212 216 193 195 214 227 225 235 237 232 210 222 228 214 241 250 266 274 279 272 270 279 273 261 215 242 262 280
190 194 193 195 199 195 197 195 197 203 210 209 215 215 216 217 209 196 191 207 223 237 244 241 238 214 207 217 220 232 238 252 263 265 268 269 266 272 303 305 292 276 273
184 189 187 191 193 196 190 193 196 199 212 213 209 221 227 216 219 200 191 202 219 231 240 228 72 121 161 209 224 225 215 239 250 256 254 264 286 292 301 271 255 259 253
183 186 187 185 190 203 186 193 202 199 204 210 215 213 220 226 224 212 204 207 222 216 237 256 267 279 276 270 228 210 223 239 245 247 256 269 273 268 255 268 277 307 300
189 189 187 187 190 194 192 195 199 206 207 209 214 213 219 223 224 219 215 193 210 212 214 226 233 234 238 240 237 241 213 224 230 245 254 258 250 254 254 267 288 294 300
190 190 190 191 183 187 185 166 48 92 97 97 76 47 359 34 1 136 133 122 144 167 196 222 220 227 230 231 229 219 228 224 235 223 225 236 249 267 278 287 297 287 291
217 201 191 203 177 185 184 181 171 122 154 161 136 129 124 299 0 352 83 82 107 150 207 213 233 224 233 241 231 222 216 213 206 216 226 242 253 270 249 264 284 282 273
340 18 198 237 161 163 176 178 161 167 166 163 47 72 80 56 132 159 169 149 180 245 233 234 191 211 211 204 206 208 214 203 215 218 230 248 260 266 272 271 272 278 290
4 24 15 98 90 118 135 158 177 188 185 178 146 156 99 79 107 164 181 238 244 230 219 223 200 192 191 194 197 200 208 219 261 288 239 247 256 263 266 274 276 275 317
336 344 316 124 166 179 184 177 183 222 194 203 188 147 107 110 221 209 195 238 250 160 167 202 184 177 153 174 166 205 207 182 222 235 251 301 291 288 277 268 284 287 289
320 312 308 225 159 204 206 123 220 326 280 235 109 54 129 146 248 171 116 59 29 19 166 145 113 128 108 118 68 246 274 333 75 291 267 270 251 273 270 273 282 298 279
304 337 329 78 355 185 136 73 114 237 239 125 93 96 98 170 113 96 105 95 84 77 88 118 124 110 96 74 30 338 301 262 187 209 225 220 218 221 266 270 266 255 247
347 335 328 15 57 12 92 94 135 177 134 101 113 137 133 82 121 121 117 122 137 121 96 96 100 104 109 120 118 280 289 9 14 0 317 290 278 235 217 255 271 275 284
239 335 337 329 34 56 32 46 84 50 28 38 29 102 102 101 114 101 107 137 122 122 107 94 76 91 108 102 87 78 46 17 337 298 320 298 291 290 283 253 273 292 307
354 62 94 21 17 32 55 63 59 59 52 30 28 41 41 69 72 84 118 108 93 88 93 92 85 81 67 53 44 29 19 5 343 332 305 299 280 281 279 287 297 308 304
32 38 37 39 38 35 31 46 59 57 67 70 38 20 85 75 58 75 84 89 95 94 85 67 69 71 66 50 36 27 23 13 4 347 315 282 312 344 355 342 328 315 293